�N����,����,�~����,�C��,���x,�C��,����,���ϕ���,�ő�u�ԕ���,�ő厞����,���˗�,�I�_���x,�n�����x,�ő啗���N��,DTYPE
"23/06/09","00:10",0.4,18.3,95.7,1000.0,313.0,1.0,1.7,319.5,0.00,17.6,19.4,"00:07:34",1
"23/06/09","00:20",0.2,18.2,95.7,999.3,296.6,0.7,1.1,308.9,0.00,17.5,19.5,"00:14:56",1
"23/06/09","00:30",0.2,18.2,95.9,999.1,281.7,0.8,1.3,299.5,0.00,17.6,19.4,"00:26:48",1
"23/06/09","00:40",0.0,18.3,95.9,998.6,278.6,1.1,1.4,263.4,0.00,17.7,19.5,"00:31:36",1
"23/06/09","00:50",0.2,18.4,96.0,998.6,265.7,1.0,2.1,254.9,0.00,17.8,19.5,"00:45:28",1
"23/06/09","01:00",0.0,18.4,96.0,998.2,267.0,1.1,1.8,250.8,0.00,17.8,19.4,"00:54:16",1
"23/06/09","01:10",0.0,18.4,96.1,998.4,297.0,1.3,2.4,326.6,0.00,17.8,19.4,"01:06:42",1
"23/06/09","01:20",0.4,18.5,96.2,998.6,285.4,1.1,2.1,335.3,0.00,17.9,19.4,"01:15:20",1
"23/06/09","01:30",1.8,18.5,96.2,997.9,290.5,0.8,1.4,251.7,0.00,17.9,19.5,"01:20:24",1
"23/06/09","01:40",0.4,18.5,96.3,997.2,304.2,0.8,1.7,326.7,0.00,17.9,19.3,"01:32:56",1
"23/06/09","01:50",1.0,18.5,96.4,997.4,290.0,0.8,1.6,313.0,0.00,18.0,19.4,"01:47:12",1
"23/06/09","02:00",3.4,18.7,96.4,997.4,279.4,0.7,1.8,243.4,0.00,18.2,19.4,"01:59:04",1
"23/06/09","02:10",3.8,18.7,96.5,996.7,305.5,0.7,1.4,245.9,0.00,18.2,19.4,"02:00:08",1
"23/06/09","02:20",2.2,18.8,96.5,997.2,272.9,1.1,1.9,270.8,0.00,18.3,19.3,"02:14:00",1
"23/06/09","02:30",0.2,18.8,96.6,996.7,266.4,1.0,1.9,262.5,0.00,18.3,19.6,"02:22:00",1
"23/06/09","02:40",0.2,18.8,96.6,996.7,265.9,0.3,1.1,263.9,0.00,18.3,19.3,"02:32:32",1
"23/06/09","02:50",0.2,18.8,96.7,996.5,327.4,0.7,1.3,312.6,0.00,18.3,19.3,"02:49:52",1
"23/06/09","03:00",0.2,18.9,96.7,996.7,312.7,1.1,1.7,323.7,0.00,18.4,19.3,"02:54:00",1
"23/06/09","03:10",0.6,18.9,96.7,997.0,311.2,1.0,1.9,314.8,0.00,18.4,19.3,"03:05:36",1
"23/06/09","03:20",0.2,19.0,96.8,996.5,294.7,0.7,1.3,300.6,0.00,18.5,19.4,"03:16:08",1
"23/06/09","03:30",0.2,19.0,96.8,996.5,253.9,0.2,0.8,252.5,0.00,18.5,19.2,"03:22:00",1
"23/06/09","03:40",0.0,19.1,96.8,997.0,257.5,0.6,1.6,245.4,0.00,18.6,19.3,"03:34:08",1
"23/06/09","03:50",0.0,19.2,96.9,997.0,304.1,0.7,1.4,341.0,0.00,18.7,19.3,"03:49:12",1
"23/06/09","04:00",0.0,19.2,96.9,996.7,341.5,0.8,1.7,348.5,0.00,18.7,19.4,"03:50:08",1
"23/06/09","04:10",0.0,19.1,96.9,996.3,326.4,0.6,1.0,339.1,0.00,18.6,19.5,"04:09:04",1
"23/06/09","04:20",0.0,19.1,97.0,996.5,312.7,0.5,1.1,339.2,0.00,18.7,19.4,"04:10:16",1
"23/06/09","04:30",0.0,19.1,97.0,996.3,289.3,0.7,1.4,314.3,0.00,18.7,19.2,"04:22:40",1
"23/06/09","04:40",0.0,19.2,97.0,996.5,295.3,0.8,1.3,329.4,0.00,18.8,19.2,"04:35:44",1
"23/06/09","04:50",0.0,19.1,97.0,996.3,298.7,0.5,0.8,268.9,0.00,18.7,19.3,"04:40:48",1
"23/06/09","05:00",0.0,19.1,97.1,996.5,337.4,0.7,1.2,341.9,0.00,18.7,19.2,"04:55:52",1
"23/06/09","05:10",0.0,19.1,97.1,996.7,275.8,0.7,1.1,305.0,0.00,18.7,19.1,"05:02:32",1
"23/06/09","05:20",0.0,19.2,97.1,996.5,300.1,0.7,1.3,324.6,0.00,18.8,19.2,"05:16:32",1
"23/06/09","05:30",0.0,19.2,97.2,997.0,322.0,0.6,1.1,302.9,0.00,18.8,19.4,"05:26:08",1
"23/06/09","05:40",0.0,19.2,97.2,997.2,332.0,0.7,1.3,344.8,0.00,18.8,19.4,"05:38:16",1
"23/06/09","05:50",0.0,19.2,97.2,997.0,298.3,0.7,1.2,293.5,0.00,18.8,19.3,"05:45:20",1
"23/06/09","06:00",0.0,19.2,97.3,997.4,225.4,0.7,1.4,227.1,0.00,18.8,19.4,"05:56:32",1
"23/06/09","06:10",0.0,19.2,97.3,997.7,247.3,0.5,1.2,196.4,0.00,18.8,19.4,"06:01:12",1
"23/06/09","06:20",0.0,19.4,97.4,997.7,298.2,0.7,1.6,314.2,0.00,19.0,19.2,"06:17:44",1
"23/06/09","06:30",0.0,19.5,97.4,997.9,333.0,0.7,1.6,329.1,0.00,19.1,19.2,"06:29:12",1
"23/06/09","06:40",0.0,19.6,97.3,998.2,321.3,0.7,1.4,339.0,0.00,19.2,19.4,"06:35:52",1
"23/06/09","06:50",0.0,19.7,97.4,998.2,219.3,0.3,1.0,207.5,0.00,19.3,19.3,"06:49:04",1
"23/06/09","07:00",0.0,19.8,97.4,998.6,209.8,0.8,1.3,188.7,0.02,19.4,19.3,"06:53:52",1
"23/06/09","07:10",0.0,20.0,97.4,998.4,351.0,0.2,0.6,332.3,0.04,19.6,19.3,"07:02:32",1
"23/06/09","07:20",0.0,20.1,97.4,998.6,190.8,0.2,1.2,115.2,0.04,19.7,19.1,"07:18:56",1
"23/06/09","07:30",0.0,20.1,97.4,998.9,59.7,0.7,1.7,336.0,0.06,19.7,19.3,"07:26:08",1
"23/06/09","07:40",0.0,20.4,97.4,998.6,340.6,1.1,2.5,345.1,0.10,20.0,19.3,"07:33:12",1
"23/06/09","07:50",0.0,20.4,97.4,998.9,332.8,1.0,1.8,336.4,0.10,20.0,19.2,"07:40:02",1
"23/06/09","08:00",0.0,20.7,97.5,998.4,331.9,0.5,1.7,342.6,0.12,20.3,19.2,"07:50:40",1
"23/06/09","08:10",0.0,21.0,97.4,998.9,241.6,0.2,0.8,261.9,0.11,20.6,19.4,"08:00:24",1
"23/06/09","08:20",0.0,21.0,97.4,998.9,273.4,0.5,1.0,347.3,0.13,20.6,19.3,"08:16:08",1
"23/06/09","08:30",0.0,21.0,97.4,999.1,278.9,1.1,2.5,310.2,0.15,20.6,19.3,"08:27:44",1
"23/06/09","08:40",0.0,21.0,97.3,999.1,295.6,1.2,2.4,261.4,0.13,20.6,19.3,"08:35:20",1
"23/06/09","08:50",0.0,20.6,97.2,999.3,298.3,1.6,4.0,329.1,0.21,20.2,19.4,"08:48:48",1
"23/06/09","09:00",0.0,21.0,97.0,999.3,315.8,1.7,3.2,325.0,0.22,20.5,19.4,"08:51:04",1
"23/06/09","09:10",0.0,20.5,96.4,999.6,323.9,2.2,4.0,329.2,0.17,19.9,19.5,"09:05:04",1
"23/06/09","09:20",0.0,21.2,96.2,999.6,314.5,2.0,4.1,340.8,0.41,20.6,19.5,"09:17:20",1
"23/06/09","09:30",0.0,21.4,95.0,999.6,322.1,2.3,4.1,347.4,0.32,20.6,19.5,"09:24:24",1
"23/06/09","09:40",0.0,21.7,94.1,999.8,319.1,2.1,3.7,349.3,0.29,20.7,19.5,"09:30:02",1
"23/06/09","09:50",0.0,21.9,92.6,999.8,311.8,2.0,4.4,337.0,0.27,20.7,19.4,"09:49:36",1
"23/06/09","10:00",0.0,22.3,90.8,999.8,308.9,2.0,3.7,313.4,0.22,20.8,19.5,"09:50:48",1
"23/06/09","10:10",0.0,22.6,88.3,999.8,301.3,2.1,4.2,312.3,0.21,20.6,19.6,"10:02:00",1
"23/06/09","10:20",0.0,22.8,85.3,999.8,312.2,2.1,3.4,325.9,0.24,20.2,19.5,"10:10:56",1
"23/06/09","10:30",0.0,23.1,83.3,999.6,300.7,2.0,3.4,336.7,0.23,20.2,19.5,"10:22:48",1
"23/06/09","10:40",0.0,23.2,81.7,999.1,278.4,2.1,3.6,334.0,0.31,19.9,19.6,"10:35:12",1
"23/06/09","10:50",0.0,23.1,80.9,999.6,283.2,2.1,4.3,251.0,0.24,19.7,19.5,"10:43:28",1
"23/06/09","11:00",0.0,23.4,80.8,999.6,283.5,2.0,3.7,242.9,0.28,20.0,19.6,"10:58:24",1
"23/06/09","11:10",0.0,23.6,79.9,999.3,273.7,1.8,4.2,258.2,0.36,20.0,19.7,"11:09:44",1
"23/06/09","11:20",0.0,24.0,78.3,999.3,267.3,1.6,3.7,255.4,0.40,20.0,19.8,"11:18:56",1
"23/06/09","11:30",0.0,24.3,77.2,999.6,258.7,1.6,3.3,254.5,0.27,20.1,19.7,"11:24:32",1
"23/06/09","11:40",0.0,24.2,76.3,999.6,254.6,1.8,3.3,255.5,0.26,19.8,19.6,"11:30:24",1
"23/06/09","11:50",0.0,24.2,76.3,999.6,247.4,2.1,3.7,209.6,0.24,19.8,19.9,"11:47:52",1
"23/06/09","12:00",0.0,24.2,75.5,999.1,252.4,2.0,3.9,234.3,0.24,19.6,19.9,"11:58:08",1
"23/06/09","12:10",0.0,24.7,75.0,999.3,251.8,1.5,3.7,238.5,0.26,20.0,19.8,"12:01:44",1
"23/06/09","12:20",0.0,25.1,74.4,998.6,242.3,1.6,3.5,237.2,0.34,20.3,19.9,"12:17:20",1
"23/06/09","12:30",0.0,25.2,73.3,998.9,274.3,0.8,2.4,243.3,0.21,20.1,19.9,"12:23:04",1
"23/06/09","12:40",0.0,24.9,75.8,998.9,190.0,2.0,4.4,182.2,0.23,20.4,19.9,"12:30:02",1
"23/06/09","12:50",0.0,24.8,76.2,999.3,201.7,2.2,3.9,209.9,0.24,20.4,20.1,"12:47:04",1
"23/06/09","13:00",0.0,24.9,75.6,998.9,201.1,2.6,4.9,232.0,0.28,20.3,20.1,"12:50:02",1
"23/06/09","13:10",0.0,24.8,77.4,999.3,197.3,2.2,3.9,174.9,0.25,20.6,20.1,"13:07:44",1
"23/06/09","13:20",0.0,25.6,74.0,999.1,181.1,2.2,4.2,180.2,0.47,20.7,20.2,"13:12:56",1
"23/06/09","13:30",0.0,24.9,74.1,999.8,185.7,2.5,5.6,231.8,0.23,20.0,20.2,"13:28:40",1
"23/06/09","13:40",0.0,24.9,75.4,999.3,186.6,2.2,3.9,190.5,0.20,20.3,20.4,"13:32:32",1
"23/06/09","13:50",0.0,24.9,75.5,999.3,183.2,2.5,4.8,203.4,0.28,20.3,20.4,"13:48:40",1
"23/06/09","14:00",0.0,25.5,75.3,999.1,177.5,2.2,4.3,195.1,0.37,20.8,20.2,"13:50:56",1
"23/06/09","14:10",0.0,26.1,73.4,998.6,181.1,2.0,3.6,208.1,0.42,21.0,20.3,"14:01:20",1
"23/06/09","14:20",0.0,26.3,72.0,998.6,172.4,1.6,2.9,183.0,0.35,20.9,20.2,"14:13:12",1
"23/06/09","14:30",0.0,25.8,71.9,998.6,157.6,2.1,3.7,142.4,0.20,20.4,20.5,"14:21:12",1
"23/06/09","14:40",0.0,25.7,73.1,998.6,177.3,1.7,3.6,180.0,0.18,20.6,20.6,"14:36:24",1
"23/06/09","14:50",0.0,25.6,72.3,999.1,186.0,1.7,4.1,236.9,0.18,20.3,20.5,"14:43:44",1
"23/06/09","15:00",0.0,26.2,71.3,998.4,156.7,1.0,2.7,202.6,0.24,20.6,20.5,"14:59:44",1
"23/06/09","15:10",0.0,26.5,70.4,998.6,188.2,1.2,2.7,197.0,0.18,20.7,20.5,"15:01:36",1
"23/06/09","15:20",0.0,26.2,69.8,998.4,180.9,2.0,3.9,200.9,0.20,20.3,20.6,"15:13:44",1
"23/06/09","15:30",0.0,26.2,70.5,998.4,182.0,2.0,4.0,199.9,0.24,20.5,20.7,"15:26:16",1
"23/06/09","15:40",0.0,26.3,69.7,998.6,173.5,2.2,4.4,122.9,0.27,20.4,20.5,"15:35:04",1
"23/06/09","15:50",0.0,26.2,70.2,998.2,168.9,2.2,4.0,198.5,0.24,20.4,20.5,"15:49:04",1
"23/06/09","16:00",0.0,26.2,70.0,998.2,180.7,1.8,3.6,195.5,0.22,20.3,20.9,"15:55:52",1
"23/06/09","16:10",0.0,26.6,69.6,998.4,184.4,2.0,4.2,210.9,0.28,20.6,20.7,"16:03:44",1
"23/06/09","16:20",0.0,26.7,68.7,998.2,184.4,1.8,3.4,152.1,0.21,20.5,20.7,"16:18:32",1
"23/06/09","16:30",0.0,26.5,69.4,998.4,176.5,2.3,4.0,143.9,0.23,20.5,20.8,"16:22:56",1
"23/06/09","16:40",0.0,26.7,68.1,998.4,167.6,2.2,3.5,192.5,0.26,20.4,20.7,"16:32:24",1
"23/06/09","16:50",0.0,26.3,68.6,997.9,159.4,2.0,3.9,122.0,0.15,20.1,20.9,"16:42:40",1
"23/06/09","17:00",0.0,26.3,68.0,998.2,168.7,2.1,4.1,152.8,0.15,20.0,20.9,"16:56:16",1
"23/06/09","17:10",0.0,26.1,68.4,998.6,183.5,1.6,3.3,204.8,0.10,19.9,20.8,"17:06:08",1
"23/06/09","17:20",0.0,26.4,68.9,998.9,186.9,1.6,3.2,194.8,0.14,20.3,21.0,"17:12:00",1
"23/06/09","17:30",0.0,26.3,68.3,998.4,184.7,1.8,3.3,177.5,0.13,20.0,20.8,"17:29:28",1
"23/06/09","17:40",0.0,25.9,68.2,998.9,204.8,2.1,3.7,193.7,0.09,19.6,20.9,"17:30:24",1
"23/06/09","17:50",0.0,25.7,68.8,998.6,203.3,1.7,3.4,216.5,0.08,19.6,21.0,"17:49:28",1
"23/06/09","18:00",0.0,25.4,68.8,999.1,197.4,1.6,3.2,207.0,0.05,19.3,21.0,"17:58:48",1
"23/06/09","18:10",0.0,25.4,69.4,999.1,197.6,1.5,2.8,229.1,0.04,19.4,21.0,"18:06:00",1
"23/06/09","18:20",0.0,25.2,70.1,999.8,202.3,1.2,2.5,236.2,0.04,19.4,21.2,"18:13:12",1
"23/06/09","18:30",0.0,25.2,70.1,999.8,246.2,0.6,1.3,356.7,0.04,19.4,21.0,"18:29:36",1
"23/06/09","18:40",0.0,25.3,70.8,999.8,330.2,0.7,1.3,331.6,0.03,19.7,20.8,"18:32:16",1
"23/06/09","18:50",0.0,25.1,73.6,1000.3,344.9,1.0,1.8,343.1,0.02,20.1,21.0,"18:40:08",1
"23/06/09","19:00",0.0,24.4,75.6,999.8,344.4,1.0,1.7,338.8,0.01,19.9,21.0,"18:56:48",1
"23/06/09","19:10",0.0,24.3,76.9,999.8,345.9,1.0,1.8,351.8,0.00,20.0,21.0,"19:09:44",1
"23/06/09","19:20",0.0,23.7,78.4,1000.3,346.0,1.1,2.1,335.7,0.00,19.8,21.1,"19:10:24",1
"23/06/09","19:30",0.0,23.4,79.6,1000.8,339.4,1.1,2.0,340.1,0.00,19.7,21.1,"19:28:40",1
"23/06/09","19:40",0.0,22.9,80.6,1001.0,321.8,1.2,2.0,307.1,0.00,19.4,21.1,"19:39:36",1
"23/06/09","19:50",0.0,22.8,81.3,1001.0,323.6,1.3,2.0,342.1,0.00,19.5,21.0,"19:40:02",1
"23/06/09","20:00",0.0,22.5,82.1,1001.0,314.2,1.6,2.1,331.7,0.00,19.3,21.1,"19:56:48",1
"23/06/09","20:10",0.0,22.4,83.0,1001.2,321.3,2.0,2.5,322.1,0.00,19.4,21.0,"20:05:52",1
"23/06/09","20:20",0.0,22.0,83.8,1001.5,300.7,1.3,2.1,323.9,0.00,19.2,20.7,"20:10:32",1
"23/06/09","20:30",0.0,21.8,84.5,1001.7,308.4,1.3,2.2,297.1,0.00,19.1,21.0,"20:28:16",1
"23/06/09","20:40",0.0,21.6,85.2,1001.5,287.8,1.3,1.8,272.4,0.00,19.0,20.9,"20:30:16",1
"23/06/09","20:50",0.0,21.5,85.7,1001.9,298.3,1.3,2.0,311.6,0.00,19.0,20.9,"20:42:16",1
"23/06/09","21:00",0.0,21.3,86.0,1002.2,283.8,1.6,2.4,265.6,0.00,18.9,20.8,"20:51:20",1
"23/06/09","21:10",0.0,21.3,86.3,1002.4,329.2,1.2,2.5,327.0,0.00,19.0,20.9,"21:00:32",1
"23/06/09","21:20",0.0,21.2,86.6,1002.2,336.8,0.7,1.4,359.9,0.00,18.9,20.9,"21:12:24",1
"23/06/09","21:30",0.0,21.0,87.1,1002.6,281.4,1.2,1.9,262.2,0.00,18.8,21.0,"21:29:52",1
"23/06/09","21:40",0.0,20.9,87.3,1001.9,283.4,1.3,1.9,265.1,0.00,18.8,20.8,"21:31:44",1
"23/06/09","21:50",0.0,20.9,87.4,1002.6,304.4,1.1,1.7,317.3,0.00,18.8,20.6,"21:44:24",1
"23/06/09","22:00",0.0,20.7,87.6,1002.9,297.2,1.0,1.4,327.3,0.00,18.6,20.7,"21:59:36",1
"23/06/09","22:10",0.0,20.6,88.0,1002.9,320.4,1.3,2.0,340.4,0.00,18.6,20.6,"22:07:28",1
"23/06/09","22:20",0.0,20.5,88.3,1002.6,316.9,1.2,1.8,331.0,0.00,18.5,20.6,"22:15:44",1
"23/06/09","22:30",0.0,20.4,88.6,1002.9,316.1,1.5,2.0,319.9,0.00,18.5,20.7,"22:23:04",1
"23/06/09","22:40",0.0,20.4,89.0,1003.1,303.4,1.2,1.8,327.0,0.00,18.6,20.7,"22:30:24",1
"23/06/09","22:50",0.0,20.2,89.3,1003.4,310.5,1.3,1.9,325.3,0.00,18.4,20.6,"22:47:44",1
"23/06/09","23:00",0.0,20.1,89.5,1002.9,295.3,1.2,1.9,324.4,0.00,18.4,20.7,"22:54:48",1
"23/06/09","23:10",0.0,20.2,89.8,1003.4,308.5,1.5,2.5,330.9,0.00,18.5,20.5,"23:08:32",1
"23/06/09","23:20",0.0,20.1,89.9,1003.1,324.1,1.0,1.6,320.2,0.00,18.4,20.4,"23:10:08",1
"23/06/09","23:30",0.0,20.0,90.1,1003.1,306.9,1.0,1.4,323.0,0.00,18.4,20.3,"23:24:24",1
"23/06/09","23:40",0.0,19.9,90.3,1003.1,298.1,1.0,1.2,310.9,0.00,18.3,20.5,"23:30:08",1
"23/06/09","23:50",0.0,19.8,90.6,1003.4,301.0,1.2,1.8,299.7,0.00,18.3,20.3,"23:46:32",1
"23/06/09","24:00",0.0,19.7,90.7,1003.4,295.3,1.0,1.3,296.0,0.00,18.2,20.5,"23:54:56",1
